CDT,Max TemperatureF,Mean TemperatureF,Min TemperatureF,Max Dew PointF,MeanDew PointF,Min DewpointF,Max Humidity, Mean Humidity, Min Humidity, Max Sea Level PressureIn, Mean Sea Level PressureIn, Min Sea Level PressureIn, Max VisibilityMiles, Mean VisibilityMiles, Min VisibilityMiles, Max Wind SpeedMPH, Mean Wind SpeedMPH, Max Gust SpeedMPH,PrecipitationIn, CloudCover, Events, WindDirDegrees
2012-10-1,73,60,48,52,48,45,94,68,36,30.23,30.16,30.10,10,10,10,28,7,32,0.14,1,,9
2012-10-2,78,62,46,52,48,43,93,66,28,30.24,30.17,30.08,10,10,10,15,4,21,0.08,0,,261
2012-10-3,84,65,46,50,43,34,93,56,16,30.18,30.11,30.07,10,10,10,22,4,26,0.00,0,,277
2012-10-4,82,64,46,46,43,36,82,52,20,30.29,30.23,30.18,10,10,10,14,3,18,0.00,0,,38
2012-10-5,86,66,46,54,44,37,93,55,19,30.26,30.19,30.13,10,10,10,15,1,22,0.00,0,,232
2012-10-6,78,63,48,54,47,39,88,67,24,30.19,30.12,30.06,10,10,10,20,4,23,0.00,0,,49
2012-10-7,68,55,42,48,42,37,93,74,46,30.24,30.17,30.11,10,10,10,22,10,26,0.00,4,,40
2012-10-8,75,57,39,50,44,37,100,70,36,30.24,30.16,30.10,10,9,0,15,2,18,0.00,1,,175
2012-10-9,82,65,48,50,43,36,93,55,19,30.19,30.13,30.08,10,10,10,12,1,17,0.00,0,,242
2012-10-10,77,62,48,52,46,41,82,57,34,30.23,30.17,30.13,10,10,10,20,4,22,0.00,0,,52
2012-10-11,82,68,53,63,55,52,100,69,39,30.22,30.16,30.11,10,10,10,18,4,26,0.00,0,Thunderstorm,140
2012-10-12,80,66,53,61,56,50,94,68,50,30.24,30.17,30.11,10,10,10,31,9,39,0.00,1,Thunderstorm,141
2012-10-13,80,66,53,59,44,23,100,57,14,30.18,30.14,30.10,10,10,10,23,4,33,0.00,1,,251
2012-10-14,73,60,48,37,32,27,58,36,25,30.33,30.25,30.18,10,10,10,21,9,25,0.00,0,,24
2012-10-15,71,60,50,50,43,36,68,53,40,30.30,30.21,30.13,10,10,10,12,4,,0.00,0,,161
2012-10-16,75,64,53,57,53,48,100,73,41,30.15,30.04,29.96,10,10,0,17,2,20,0.00,4,,233
2012-10-17,82,65,48,54,39,28,100,50,15,30.03,29.98,29.94,10,10,2,26,5,31,0.00,0,,285
2012-10-18,80,65,48,43,34,27,58,35,14,30.13,30.08,30.03,10,10,10,15,4,22,0.00,0,,293
2012-10-19,82,60,39,41,35,30,81,45,15,30.16,30.10,30.04,10,10,10,13,1,16,0.00,0,,209
2012-10-20,84,64,44,46,42,36,76,50,25,30.07,30.02,29.96,10,10,10,16,3,25,0.00,0,,188
2012-10-21,84,66,48,46,42,36,82,48,21,30.09,30.03,30.00,10,10,10,13,2,21,0.00,0,,258
2012-10-22,80,64,48,54,42,36,82,47,20,30.11,30.06,30.02,10,10,10,20,4,32,0.00,1,Thunderstorm,259
2012-10-23,82,62,42,43,39,34,76,45,20,30.12,30.07,30.03,10,10,10,13,1,,0.00,0,,171
2012-10-24,86,66,46,57,46,32,100,58,20,30.08,30.01,29.93,10,10,5,23,4,29,0.00,0,,201
2012-10-25,78,61,44,43,35,28,87,44,16,30.13,30.05,29.97,10,10,10,21,5,29,0.00,0,,28
2012-10-26,53,46,39,43,33,28,82,63,50,30.30,30.23,30.13,10,10,10,23,14,28,0.00,5,,32
2012-10-27,57,47,37,32,25,18,70,45,36,30.29,30.22,30.12,10,10,10,20,9,25,0.00,5,,46
2012-10-28,68,49,30,37,32,25,81,56,30,30.25,30.20,30.17,10,10,10,10,0,,0.00,0,,163
2012-10-29,77,55,33,39,29,21,81,49,14,30.28,30.21,30.15,10,10,10,14,1,16,0.00,0,,267
2012-10-30,80,56,33,30,23,16,70,34,11,30.19,30.15,30.10,10,10,9,15,3,23,0.00,0,,279
2012-10-31,78,56,35,27,20,16,49,29,10,30.21,30.16,30.10,10,10,10,12,0,,0.00,0,,25